This demonstration page uses our WeatherBlox Daily Observations layout. Learn more.

Left ArrowRight Arrow

Hourly Observations for September 14, 2019

Temp ( °F °C ) Dew Point ( °F °C ) Humidity (%) Winds ( mph kmh ) Pressure ( in mb ) Visibility ( mi km ) Precip ( " mm )
12:51 am 00:51 Clear 72 22.2 63 17.2 73 73 ESE 6 9 29.94 1014 10 16 0.00 0.00
1:51 am 01:51 Mostly Clear 73 22.8 61 16.1 66 66 SE 7 11 29.95 1014 10 16 0.00 0.00
2:51 am 02:51 Clear 73 22.8 59 15 62 62 SE 7 11 29.96 1015 10 16 0.00 0.00
3:51 am 03:51 Clear 72 22.2 60 15.6 66 66 E 5 7 29.98 1015 10 16 0.00 0.00
4:51 am 04:51 Clear 72 22.2 59 15 64 64 E 6 9 29.98 1015 10 16 0.00 0.00
5:51 am 05:51 Clear 71 21.7 60 15.6 68 68 ESE 7 11 29.99 1016 10 16 0.00 0.00
6:51 am 06:51 Sunny 71 21.7 62 16.7 73 73 S 9 15 30.01 1016 10 16 0.00 0.00
7:51 am 07:51 Sunny 76 24.4 59 15 56 56 SSE 7 11 30.01 1016 10 16 0.00 0.00
8:51 am 08:51 Sunny 77 25 58 14.4 52 52 S 6 9 30.02 1017 10 16 0.00 0.00
9:51 am 09:51 Sunny 80 26.7 58 14.4 47 47 SSE 7 11 30.01 1016 10 16 0.00 0.00
10:51 am 10:51 Sunny 81 27.2 56 13.3 42 42 S 9 15 30.01 1016 10 16 0.00 0.00
11:51 am 11:51 Sunny 80 26.7 57 13.9 45 45 S 21 33 30.02 1017 10 16 0.00 0.00
12:51 pm 12:51 Cloudy 74 23.3 63 17.2 69 69 SSE 18 30 30.06 1018 10 16 0.00 0.00
1:51 pm 13:51 Mostly Cloudy 73 22.8 62 16.7 69 69 SSE 9 15 30.04 1017 10 16 0.00 0.00
2:51 pm 14:51 Cloudy 71 21.7 62 16.7 73 73 S 9 15 30.03 1017 10 16 0.00 0.00
3:51 pm 15:51 Cloudy with Light Rain 71 21.7 62 16.7 73 73 W 5 7 30.03 1017 10 16 0.00 0.00
4:51 pm 16:51 Cloudy with Light Rain 69 20.6 64 17.8 84 84 SW 6 9 30.03 1017 10 16 0.01 0.25
5:51 pm 17:51 Cloudy with Light Rain 68 20 65 18.3 90 90 NNE 5 7 30.04 1017 9 14 0.02 0.51
6:51 pm 18:51 Cloudy with Light Rain 67 19.4 65 18.3 93 93 NNW 3 6 30.04 1017 10 16 0.03 0.76
7:51 pm 19:51 Cloudy 67 19.4 64 17.8 91 91 NNW 3 6 30.01 1016 10 16 0.01 0.25
8:51 pm 20:51 Mostly Cloudy 67 19.4 65 18.3 93 93 Calm 30.01 1016 10 16 0.00 0.00
9:51 pm 21:51 Cloudy 68 20 65 18.3 90 90 ESE 8 13 30.00 1016 10 16 0.00 0.00
10:51 pm 22:51 Cloudy 67 19.4 64 17.8 91 91 S 8 13 29.99 1016 10 16 0.00 0.00
11:51 pm 23:51 Cloudy 69 20.6 60 15.6 73 73 ENE 14 22 29.98 1015 10 16 0.00 0.00

Powered by AerisWeather